date,selection,bench
04/03/2019,100,100
05/03/2019,99.76,100.0870562
06/03/2019,99.23,100.0623243
07/03/2019,98.36,99.865784
08/03/2019,97.48,99.33405976
11/03/2019,98.2,99.79961484
12/03/2019,98.51,99.76493867
13/03/2019,98.92,100.1408272
14/03/2019,99.33,100.6183461
15/03/2019,99.87,101.0307289
18/03/2019,99.72,101.1926669
19/03/2019,100.4,101.5514136
20/03/2019,99.48,101.0037518
21/03/2019,99.81,100.9965411
22/03/2019,98.34,100.2617743
25/03/2019,97.36,99.98875716
26/03/2019,98.01,100.4515481
27/03/2019,97.77,100.4769227
28/03/2019,98.34,100.4257208
29/03/2019,99.01,100.8249776
01/04/2019,99.7,101.556715
02/04/2019,100.12,101.7746006
03/04/2019,100.69,102.3935573
04/04/2019,100.27,102.2613835
05/04/2019,100.8,102.3373967
08/04/2019,101.07,102.2298122
09/04/2019,100.6,101.9446203
10/04/2019,101.1,102.1108877
11/04/2019,101.19,102.1734753
12/04/2019,101.51,102.2840191
15/04/2019,101.7,102.4131419
16/04/2019,101.75,102.5908705
17/04/2019,101.49,102.6532584
18/04/2019,101.41,102.8030522
23/04/2019,101.93,102.9697142
24/04/2019,101.78,102.9133679
25/04/2019,101.44,102.8196986
26/04/2019,101.15,102.9752971
29/04/2019,101.04,103.0560705
30/04/2019,100.68,103.0742856
02/05/2019,100.25,102.7247129
03/05/2019,100.51,102.9760095
06/05/2019,99.69,102.4751962
07/05/2019,99,101.649632
08/05/2019,99.3,101.7545308
09/05/2019,99.3,100.812401
10/05/2019,98.09,101.0177238
13/05/2019,96.69,100.2914024
14/05/2019,97.84,100.9057619
15/05/2019,98.45,101.1941086
16/05/2019,99.31,102.0273751
17/05/2019,99.1,101.8266116
20/05/2019,97.73,101.2333074
21/05/2019,98.45,101.5791111
22/05/2019,98.74,101.5320382
23/05/2019,97.31,100.6915059
24/05/2019,97.56,101.0385658
27/05/2019,97.86,101.1876462
28/05/2019,98.14,101.0567056
29/05/2019,96.58,100.208251
31/05/2019,96.67,99.99633644
03/06/2019,96.67,100.2293898
04/06/2019,96.31,100.5881435
05/06/2019,97.07,100.8172651
06/06/2019,96.85,100.8198854
07/06/2019,97.8,101.381566
11/06/2019,98.88,101.942077
12/06/2019,98.69,101.7569711
13/06/2019,98.79,101.8655556
14/06/2019,98.37,101.621029
17/06/2019,98.39,101.5693899
18/06/2019,99.62,102.5977674
19/06/2019,99.45,102.5988481
20/06/2019,100.22,102.8264324
21/06/2019,99.83,102.6035617
24/06/2019,99.91,102.4550509
25/06/2019,100.08,102.3947866
26/06/2019,99.94,102.2019944
27/06/2019,99.24,102.2203163
28/06/2019,99.9,102.6493062
01/07/2019,100.76,103.1308458
02/07/2019,100.82,103.3583915
03/07/2019,101.26,103.8868673
04/07/2019,101.28,103.9531692
05/07/2019,100,103.5036851
08/07/2019,100.45,103.4712205
09/07/2019,99.92,103.1586085
10/07/2019,100.04,103.0360415
11/07/2019,99.85,102.9648118
12/07/2019,99.91,102.9897533
15/07/2019,100.18,103.1316705
16/07/2019,100.82,103.3457907
17/07/2019,100.65,103.1162536
18/07/2019,100.09,102.9787569
19/07/2019,99.89,103.0521599
22/07/2019,100.28,103.1351249
23/07/2019,100.83,103.7402889
24/07/2019,100.87,103.7702899
25/07/2019,100.38,103.4286301
26/07/2019,101.24,103.6215216
29/07/2019,100.64,103.6410636
30/07/2019,99.66,102.7296805
31/07/2019,100.19,102.8360676
01/08/2019,101.19,103.1438955
02/08/2019,98.77,101.6232728
05/08/2019,96.86,100.2219774
06/08/2019,97.28,99.94212603
07/08/2019,97.96,100.0862862
08/08/2019,99.5,101.1636875
09/08/2019,98.36,100.6568806
12/08/2019,97.84,100.4678945
13/08/2019,97.9,100.7942778
14/08/2019,96.02,99.78161279
16/08/2019,95.54,100.3939893
19/08/2019,96.54,101.0861521
20/08/2019,96.37,100.6704187
21/08/2019,97.86,101.4022531
22/08/2019,96.77,101.1712428
23/08/2019,96.2,100.6976217
26/08/2019,95.77,100.6835536
27/08/2019,96.46,101.06552
28/08/2019,95.62,100.9404982
29/08/2019,96.36,101.5742664
30/08/2019,97.12,102.0209849
02/09/2019,97.21,102.2164203
03/09/2019,96.96,102.0750948
04/09/2019,98.09,102.6178747
05/09/2019,99.05,103.0832321
06/09/2019,99.39,103.279602
09/09/2019,99.09,103.1049208
10/09/2019,98.22,103.1656201
11/09/2019,98.91,103.6896514
12/09/2019,99.31,103.8132228
13/09/2019,99.07,104.021262
16/09/2019,98.24,103.6606821
17/09/2019,98.44,103.6290767
18/09/2019,98.63,103.6457415
19/09/2019,98.85,104.0291585
20/09/2019,98.6,104.2116148
23/09/2019,97.77,103.7150295
24/09/2019,97.93,103.7211906
25/09/2019,97.19,103.3621694
26/09/2019,97.44,103.7418168
27/09/2019,97.29,104.0433486
30/09/2019,97.37,104.2595667
01/10/2019,96.79,103.4387611
02/10/2019,95,101.7644057
03/10/2019,95.14,101.7713987
04/10/2019,96.16,102.2166884
07/10/2019,96.88,102.6506315
08/10/2019,95.92,101.9728851
09/10/2019,96.43,102.2298876
10/10/2019,96.46,102.6483566
11/10/2019,97.17,104.077058
14/10/2019,97.11,103.7688094
15/10/2019,97.77,104.4607217
16/10/2019,97.83,104.3700447
17/10/2019,97.79,104.3148041
18/10/2019,97.19,104.1168078
21/10/2019,97.41,104.495097
22/10/2019,97.4,104.5529235
23/10/2019,97.18,104.6240205
24/10/2019,97.95,104.9999135
25/10/2019,98.2,105.1017286
28/10/2019,99.14,105.255388
29/10/2019,98.63,105.1578218
30/10/2019,98.53,105.2190773
31/10/2019,97.5,104.9192946
04/11/2019,98.98,105.9758011
05/11/2019,99.35,106.10699
06/11/2019,98.98,106.2409956
07/11/2019,100,106.4888541
08/11/2019,99.47,106.3118049
11/11/2019,99.67,106.3118049
12/11/2019,99.95,106.5440924
13/11/2019,99.68,106.3824328
14/11/2019,98.91,106.1746246
15/11/2019,99.79,106.4306074
18/11/2019,99.43,106.4260897
19/11/2019,99.35,106.3525917
20/11/2019,99.21,106.0863861
21/11/2019,98.46,105.8416378
22/11/2019,99.21,106.1201227
25/11/2019,100.09,106.7669733
26/11/2019,100.66,106.8297895
27/11/2019,100.75,107.0374069
28/11/2019,100.51,106.9671072
29/11/2019,99.85,106.6815432
02/12/2019,98.97,105.6776155
03/12/2019,98.42,105.2761059
04/12/2019,99.47,106.0244635
05/12/2019,99.67,105.9420088
06/12/2019,100.52,106.6864972
09/12/2019,99.99,106.5341048
10/12/2019,99.67,106.3680557
11/12/2019,99.57,106.5069268
12/12/2019,99.97,106.7229745
13/12/2019,100.85,107.4201035
16/12/2019,101.57,108.3139923
17/12/2019,101.27,107.8836659
18/12/2019,100.71,107.798531
19/12/2019,101.01,107.9086749
20/12/2019,101.29,108.4279132
23/12/2019,101.57,108.4053719
24/12/2019,101.57,108.5100405
27/12/2019,101.88,108.645348
30/12/2019,101.18,108.0903363
31/12/2019,101.05,108.0385404
02/01/2020,101.84,108.6449095
03/01/2020,101.31,108.4284922
06/01/2020,100.75,108.1725201
07/01/2020,100.99,108.3336354
08/01/2020,101.19,108.4412428
09/01/2020,101.81,108.644596
10/01/2020,101.5,108.5663439
13/01/2020,101.68,108.4488268
14/01/2020,102.21,108.6355944
15/01/2020,102.22,108.6436903
16/01/2020,102.52,108.7906581
17/01/2020,103.14,109.4141082
20/01/2020,103.41,109.3301217
21/01/2020,103.59,109.2378703
22/01/2020,103.47,109.18428
23/01/2020,102.61,108.7183218
24/01/2020,103.81,109.277305
27/01/2020,102.05,107.7949159
28/01/2020,102.3,108.340507
29/01/2020,102.55,108.6268917
30/01/2020,101.77,107.9685955
31/01/2020,100.78,107.2729399
03/02/2020,101.48,107.4310023
04/02/2020,102.61,108.4860409
05/02/2020,103.62,109.286482
06/02/2020,103.81,109.5927325
07/02/2020,103.83,109.4190489
10/02/2020,104.06,109.4596801
11/02/2020,105.07,110.0527103
12/02/2020,105.58,110.4673865
13/02/2020,105.82,110.4796458
14/02/2020,106.35,110.3937055
17/02/2020,106.59,110.6177441
18/02/2020,106.5,110.3647972
19/02/2020,107.74,110.9146791
20/02/2020,106.8,110.3669364
21/02/2020,107.1,110.0438209
24/02/2020,104.94,107.5415039
25/02/2020,104.12,106.4032194
26/02/2020,104.48,106.4085293
27/02/2020,102.63,104.0746697
28/02/2020,101.99,101.8617616
02/03/2020,102.53,101.9113545
03/03/2020,104.72,102.784134
04/03/2020,105.16,103.6220952
05/03/2020,104.29,102.7697682
06/03/2020,101.45,100.5090673
09/03/2020,95.56,96.02085402
10/03/2020,94.18,95.36485909
11/03/2020,92.79,94.94345664
12/03/2020,86.27,88.41237397
13/03/2020,87.18,89.17301329
16/03/2020,83.37,86.57457174
17/03/2020,82.71,87.75140018
18/03/2020,79.35,85.68610367
19/03/2020,79.42,87.22272111
20/03/2020,82.59,88.17556008
23/03/2020,81.03,85.89935081
24/03/2020,86.7,90.23817614
25/03/2020,89.94,91.90769151
26/03/2020,92.42,93.33899278
27/03/2020,88.76,91.52060553
30/03/2020,88.72,92.24269309
31/03/2020,89.89,93.15294074
01/04/2020,87.27,91.53513113
02/04/2020,86.8,91.7788325
03/04/2020,85.92,91.26575562
06/04/2020,89.36,93.25246245
07/04/2020,91.59,94.31087878
08/04/2020,92.41,94.32398038
09/04/2020,93.82,95.21083247
14/04/2020,94.1,95.57803673
15/04/2020,91.24,93.71485971
16/04/2020,91.25,94.04945736
17/04/2020,93.63,95.53798047
20/04/2020,93.47,95.92198264
21/04/2020,90.94,93.97977895
22/04/2020,90.99,94.99734249
23/04/2020,91.75,95.54200518
24/04/2020,91.42,94.92642388
27/04/2020,92.62,95.98404502
28/04/2020,92.77,96.9575074
29/04/2020,93.95,97.99503941
30/04/2020,93.4,96.81668953
04/05/2020,91.07,94.85651523
05/05/2020,92.21,96.09748899
06/05/2020,92.77,95.8989691
07/05/2020,94.28,96.5708508
08/05/2020,94.79,96.5708508
11/05/2020,95.36,96.87404306
12/05/2020,95.74,97.02972534
13/05/2020,95.61,95.90353018
14/05/2020,93.42,94.67286704
15/05/2020,93.75,94.95612376
18/05/2020,95.88,97.28843259
19/05/2020,95.51,96.93095253
20/05/2020,96.73,97.50650912
22/05/2020,97.58,97.07559346
25/05/2020,98.56,97.93500351
26/05/2020,99.19,98.57132309
27/05/2020,96.97,98.71130505
28/05/2020,98.93,99.68234026
29/05/2020,99.11,98.82983349
02/06/2020,100.48,100.4285949
03/06/2020,101.62,101.9659714
04/06/2020,101.74,101.5221988
05/06/2020,102.8,103.0319423
08/06/2020,101.13,102.8351318
09/06/2020,100.57,102.0836008
10/06/2020,100.76,101.8517385
11/06/2020,98.91,99.36032097
12/06/2020,98.97,99.52823745
15/06/2020,98.81,99.36312889
16/06/2020,100.67,101.0961676
17/06/2020,101.84,101.5524041
18/06/2020,101.99,101.1254534
19/06/2020,101.92,101.4846187
22/06/2020,101.61,101.0427414
23/06/2020,101.61,101.8368428
24/06/2020,100.83,100.1344873
25/06/2020,100.88,100.5714259
26/06/2020,100.86,100.3332802
29/06/2020,101.23,100.6127704
30/06/2020,101.78,100.6873537
01/07/2020,102.55,100.8400341
02/07/2020,103.7,102.0416146
03/07/2020,103.7,101.5696265
06/07/2020,104.35,102.5329745
07/07/2020,104.34,102.1744842
08/07/2020,103.76,101.7726807
09/07/2020,104.01,101.3127812
10/07/2020,104.48,101.8455115
13/07/2020,105.34,102.457439
14/07/2020,103.94,102.457439
15/07/2020,105.95,103.0242759
16/07/2020,105.78,102.7363359
17/07/2020,105.75,102.8317985
20/07/2020,107.18,103.3007939
21/07/2020,107.7,103.4960569
22/07/2020,107.46,102.9600497
23/07/2020,108.04,103.0010333
24/07/2020,105.43,101.9487554
27/07/2020,106.05,101.758024
28/07/2020,105.25,102.0115573
29/07/2020,105.84,101.9738251
30/07/2020,104.48,100.656238
31/07/2020,104.83,100.1201282
03/08/2020,106.27,101.3520224
04/08/2020,105.28,101.3095526
05/08/2020,106.41,101.604307
06/08/2020,106.08,101.1819155
07/08/2020,106.79,101.3631378
10/08/2020,105.79,101.5507257
11/08/2020,106.65,102.5724676
12/08/2020,107.42,103.2552548
13/08/2020,107.63,102.9119362
14/08/2020,106.25,102.1767413
17/08/2020,107.13,102.3716709
18/08/2020,106.74,102.0271446
19/08/2020,107.52,102.4253134
20/08/2020,106.54,101.7900505
21/08/2020,106.83,101.6974947
24/08/2020,108.48,102.659432
25/08/2020,109.25,102.4766342
26/08/2020,111.74,103.036441
27/08/2020,110.71,102.6398182
28/08/2020,110.35,102.329165
31/08/2020,110.46,101.9486088
01/09/2020,110.81,101.737618
02/09/2020,112.14,102.7513128
03/09/2020,109.36,101.8974039
04/09/2020,107.32,101.2051767
07/09/2020,109.82,102.2184403
08/09/2020,108.21,101.5139729
09/09/2020,109.37,102.5049158
10/09/2020,109.36,102.1447228
11/09/2020,109.46,102.223891
14/09/2020,110.55,102.3140992
15/09/2020,111.59,102.7221965
16/09/2020,112.93,103.0845935
17/09/2020,112.62,102.7695121
18/09/2020,113.43,102.3638444
21/09/2020,111.86,100.3728968
22/09/2020,112.27,100.4960303
23/09/2020,113.23,100.8285515
24/09/2020,112.56,100.2109045
25/09/2020,112.61,100.1642602
28/09/2020,113.42,101.494716
29/09/2020,113.86,101.1762828
30/09/2020,113.37,101.1092799
01/10/2020,116.04,101.24633
02/10/2020,115.4,101.3962388
05/10/2020,116.39,101.8897598
06/10/2020,115.61,101.9318149
07/10/2020,116.19,101.8598355
08/10/2020,116.62,102.3407145
09/10/2020,117.53,102.6805885
12/10/2020,118.95,103.1184968
13/10/2020,119.13,102.7800415
14/10/2020,119.02,102.722815
15/10/2020,117.5,101.4442681
16/10/2020,119.32,102.2109479
19/10/2020,118.85,102.0978289
20/10/2020,118.32,101.8801272
21/10/2020,116.28,101.0902679
22/10/2020,116.23,101.0087204
23/10/2020,116.02,101.3844948
26/10/2020,114.14,100.2850826
27/10/2020,114,99.71585741
28/10/2020,112.54,97.94870929
29/10/2020,113.54,97.88886429
30/10/2020,113.57,97.99225147
02/11/2020,113.85,98.93994391
03/11/2020,115.35,100.3324581
04/11/2020,117.76,101.5684663
05/11/2020,120.61,102.2143864
06/11/2020,120.85,102.0939171
09/11/2020,118.63,104.5324953
10/11/2020,118.36,105.0974805
11/11/2020,120.49,105.0974805
12/11/2020,119.97,105.2328175
13/11/2020,120.15,105.2367429
16/11/2020,121.42,105.982782
17/11/2020,121.19,105.8332531
18/11/2020,121.59,106.1138826
19/11/2020,121.47,105.6349198
20/11/2020,123.05,105.9626992
23/11/2020,123.11,105.8380025
24/11/2020,123.24,106.4235152
25/11/2020,123.94,106.374925
26/11/2020,124.34,106.3122709
27/11/2020,126.28,106.5750303
30/11/2020,125.97,105.9442394
01/12/2020,127.59,106.3618048
02/12/2020,126.78,106.3309408
03/12/2020,127.7,106.3400061
04/12/2020,128.39,106.7188129
07/12/2020,128.17,106.5275679
08/12/2020,128,106.6562689
09/12/2020,128.19,106.8638332
10/12/2020,127.38,106.5824717
11/12/2020,127.06,106.0953629
14/12/2020,128.57,106.375137
15/12/2020,129.39,106.5364947
16/12/2020,130.75,107.0639859
17/12/2020,131.66,107.281318
18/12/2020,131.95,107.0580277
21/12/2020,129.77,105.563527
22/12/2020,131.84,106.3083179
23/12/2020,133.11,107.0008157
24/12/2020,133.11,107.0805393
28/12/2020,134.94,107.5003412
29/12/2020,135.22,107.9909372
30/12/2020,135.47,107.7729964
31/12/2020,134.84,107.5752537
04/01/2021,136.06,108.012532
05/01/2021,136.95,107.8904846
06/01/2021,137.07,108.7745989
07/01/2021,138.18,109.10909
08/01/2021,139.45,109.5388486
11/01/2021,137.09,109.0948653
12/01/2021,137.13,109.1320944
13/01/2021,136.2,109.205655
14/01/2021,136.54,109.6772765
15/01/2021,133.88,109.0153447
18/01/2021,135.35,109.1554457
19/01/2021,134.92,109.0335176
20/01/2021,136.96,109.5005368
21/01/2021,137.99,109.5086647
22/01/2021,136.91,109.1324929
25/01/2021,134.56,108.5842478
26/01/2021,134.17,108.9971365
27/01/2021,130.78,108.2401194
28/01/2021,131.89,108.3060518
29/01/2021,131.57,107.0900154
01/02/2021,133.24,107.8883649
02/02/2021,135.31,108.7190504
03/02/2021,135.65,108.9348987
04/02/2021,136.41,109.3141828
05/02/2021,137.38,109.3128804
08/02/2021,137.94,109.5108112
09/02/2021,137.48,109.4515005
10/02/2021,136.23,109.300047
11/02/2021,137.09,109.60005
12/02/2021,137.76,110.0241524
15/02/2021,139.02,110.8948925
16/02/2021,139.4,110.8561987
17/02/2021,136.9,110.3643875
18/02/2021,135.71,109.8458731
19/02/2021,137.24,110.1948098
22/02/2021,135.98,109.9020641
23/02/2021,133.36,109.6237124
24/02/2021,134.45,109.9296352
25/02/2021,134.4,109.7243806
26/02/2021,133.71,108.6470138
01/03/2021,135.59,109.8451372
02/03/2021,135.3,109.9726467
03/03/2021,135.51,110.0074987
04/03/2021,133.78,109.8348588
05/03/2021,131.61,109.3168429
08/03/2021,134.41,110.6908708
09/03/2021,136.21,111.1935754
10/03/2021,136.08,111.4621802
11/03/2021,137.62,111.8127685
12/03/2021,137.36,111.6405407
15/03/2021,137.08,111.6402103
16/03/2021,138.7,112.2330957
17/03/2021,138.14,111.932894
18/03/2021,138.86,112.2381686
19/03/2021,137.12,111.7261117
22/03/2021,137.08,111.8559964
23/03/2021,136.28,111.7195689
24/03/2021,136.74,111.7332915
25/03/2021,135.98,111.7183944
26/03/2021,137.85,112.3417322
29/03/2021,136.69,112.4554221
30/03/2021,138.32,112.9349633
31/03/2021,138.09,112.7802091
01/04/2021,140.11,113.208337
06/04/2021,141.26,113.6996571
07/04/2021,140.13,113.5533845
08/04/2021,140.14,113.9625611
09/04/2021,140.51,114.0360911
12/04/2021,139.21,113.7237565
13/04/2021,140.29,113.8115356
14/04/2021,140.79,113.9416703
15/04/2021,141.16,114.2665789
16/04/2021,142.73,114.8925033
19/04/2021,142.73,114.8885717
20/04/2021,138.37,113.6022431
21/04/2021,138.64,114.0488033
22/04/2021,140.36,114.5322998
23/04/2021,140.81,114.4430302
26/04/2021,142.09,114.6313073
27/04/2021,142.54,114.5864034
28/04/2021,141.61,114.6139357
29/04/2021,140.56,114.4585984
30/04/2021,139.34,114.262994
03/05/2021,139.75,114.6635937
04/05/2021,137.01,113.6955272
05/05/2021,140.05,114.9585244
06/05/2021,139.32,114.9207144
07/05/2021,141.15,115.5653464
10/05/2021,140.27,115.6614406
11/05/2021,137.81,114.2920079
12/05/2021,137.29,114.5021166
14/05/2021,138.6,115.248399
17/05/2021,138.19,115.2234491
18/05/2021,138.76,115.3483104
19/05/2021,137.01,114.3013322
20/05/2021,138.34,115.2147011
21/05/2021,139.1,115.6150489
25/05/2021,140.57,115.7713624
26/05/2021,140.89,115.7713624
27/05/2021,142.35,115.9727568
28/05/2021,142.93,116.3762132
31/05/2021,143.33,116.0324861
01/06/2021,144.36,116.557182
02/06/2021,144.33,116.7603586
03/06/2021,143.67,116.6888849
04/06/2021,144.05,116.9641833
07/06/2021,144.76,117.1205452
08/06/2021,144.37,117.1892562
09/06/2021,143.7,117.2572449
10/06/2021,142.96,117.2801839
11/06/2021,144.14,117.7373815
14/06/2021,143.69,117.8612481
15/06/2021,143.29,117.9420892
16/06/2021,143.86,118.1043101
17/06/2021,143.88,118.0257925
18/06/2021,142.62,116.9037887
21/06/2021,143.2,117.4023844
22/06/2021,143.74,117.5879457
23/06/2021,143.74,117.0770883
24/06/2021,145.01,117.7088454
25/06/2021,145.47,117.8008073
28/06/2021,144.33,117.3832293
29/06/2021,144.82,117.6061782
30/06/2021,143.38,117.0621812
01/07/2021,144.25,117.5012016
02/07/2021,144.52,117.6845757
05/07/2021,144.94,117.9273178
06/07/2021,144.58,117.5602971
07/07/2021,145.48,118.1121456
08/07/2021,142.57,116.9086987
09/07/2021,142.94,117.8506057
12/07/2021,143.59,118.3375111
13/07/2021,143.72,118.3561628
14/07/2021,143.28,118.3561628
15/07/2021,142.19,117.6210946
16/07/2021,141.49,117.395815
19/07/2021,139.92,115.7819808
20/07/2021,140.2,116.1453405
21/07/2021,141.92,117.2936174
22/07/2021,143.8,117.6933344
23/07/2021,143.8,118.4680658
26/07/2021,144.2,118.4111407
27/07/2021,144.2,118.0271673
28/07/2021,143.88,118.4976302
29/07/2021,144.08,118.8313253
30/07/2021,144.6,118.5093551
02/08/2021,145.51,118.9250083
03/08/2021,145.49,119.0677983
04/08/2021,147.11,119.502573
05/08/2021,146.43,119.7899133
06/08/2021,146.43,119.7906422
09/08/2021,146.78,119.8973183
10/08/2021,147.5,120.1471568
11/08/2021,147.2,120.4525311
12/08/2021,147.28,120.6377942
13/08/2021,147.14,120.7396175
16/08/2021,146.44,120.3797047
17/08/2021,146.19,120.4294327
18/08/2021,146.4,120.5267779
19/08/2021,144.95,119.4699989
20/08/2021,145.61,119.710167
23/08/2021,146.45,120.1782847
24/08/2021,146.17,120.164702
25/08/2021,147.01,120.1722469
26/08/2021,146.76,119.9549225
27/08/2021,147.21,120.2605977
30/08/2021,147.9,120.3111247
31/08/2021,147.51,120.0361028
01/09/2021,148.27,120.3784509
02/09/2021,149.51,120.6377942
03/09/2021,148.63,120.2307504
06/09/2021,149.96,120.7267432
07/09/2021,149.48,120.3715288
08/09/2021,147.92,119.6079466
09/09/2021,149.31,119.5656163
10/09/2021,149.68,119.3769758
13/09/2021,147.73,119.5817416
14/09/2021,148.79,119.5783729
15/09/2021,147.19,119.0035314
16/09/2021,148.67,119.3183574
17/09/2021,147.86,118.6858678
20/09/2021,145.99,117.498914
21/09/2021,147.77,118.219665
22/09/2021,148.07,118.9195827
23/09/2021,149.98,119.5831267
24/09/2021,147.44,118.9371733
27/09/2021,143.86,118.8021694
28/09/2021,138.94,117.2587898
29/09/2021,139.35,117.6751381
30/09/2021,139.3,117.6544587
01/10/2021,134.95,117.3608088
04/10/2021,134.95,117.0529678
05/10/2021,137.1,117.871292
06/10/2021,135.41,117.1438487
07/10/2021,136.89,118.2764413
08/10/2021,134.46,118.0802245
11/10/2021,131.83,118.116257
12/10/2021,133.27,118.0653196
13/10/2021,131.89,118.558364
14/10/2021,132.37,119.4165121
15/10/2021,132.88,119.9496191
18/10/2021,133.27,119.5990501
19/10/2021,133.16,119.835611
20/10/2021,133.08,120.0629846
21/10/2021,133.14,120.0112053
22/10/2021,133.31,120.3454283
25/10/2021,133.56,120.3952364
26/10/2021,133.65,120.9335714
27/10/2021,133.01,120.6750907
28/10/2021,133.75,120.8545034
29/10/2021,133.97,120.9162978
02/11/2021,135.73,121.5325687
03/11/2021,136.34,121.7902416
04/11/2021,137.1,122.1008946
05/11/2021,136.59,122.1359693
08/11/2021,136.92,122.1589471
09/11/2021,136.34,122.0228356
10/11/2021,135.81,122.1799859
11/11/2021,136.33,122.4252694
12/11/2021,136.46,122.6476514
15/11/2021,136.86,122.9057943
16/11/2021,137.15,123.0333273
17/11/2021,137.36,123.1359527
18/11/2021,137.29,122.8055147
19/11/2021,136.78,122.5604361
22/11/2021,136.23,122.4797972
23/11/2021,133.92,121.5394461
24/11/2021,133.47,121.6050542
25/11/2021,134.23,121.9274788
26/11/2021,130.75,119.2435885
29/11/2021,130.71,119.7348422
30/11/2021,130.09,119.0811818
01/12/2021,131.77,120.3049802
02/12/2021,129.92,119.4851483
03/12/2021,129.8,119.07474
06/12/2021,129.83,119.9901977
07/12/2021,133.17,121.750876
08/12/2021,132.57,121.3218642
09/12/2021,132.63,121.2649986
10/12/2021,131.99,121.0462084
13/12/2021,131.72,120.7383576
14/12/2021,129.96,120.1296595
15/12/2021,130.97,120.3137447
16/12/2021,131.3,121.2051732
17/12/2021,129.9,120.7992862
20/12/2021,129.18,119.7955663
21/12/2021,130.02,120.8166269
22/12/2021,130.02,121.4849215
23/12/2021,132.04,122.2015064
24/12/2021,132.04,122.1253595
27/12/2021,132.6,122.5756134
28/12/2021,133.24,123.0323239
29/12/2021,133.47,122.9524908
30/12/2021,133.44,123.0639192
31/12/2021,133.23,122.9263906
03/01/2022,133.79,123.264026
04/01/2022,134.24,123.8724474
05/01/2022,134.29,123.9218669
06/01/2022,131.82,122.992441
07/01/2022,130.8,122.705231
10/01/2022,128.23,121.6164341
11/01/2022,128.73,122.2310457
12/01/2022,129.68,122.7047782
13/01/2022,129.47,122.6873105
14/01/2022,127.93,121.9459043
17/01/2022,128.45,122.454154
18/01/2022,127.59,121.7360425
19/01/2022,127.47,121.9049787
20/01/2022,127.36,122.2789711
21/01/2022,125.99,120.9275991
24/01/2022,122.75,118.1679896
25/01/2022,122.95,118.6692569
26/01/2022,124.02,119.8648514
27/01/2022,123.11,120.3292905
28/01/2022,122.56,119.595689
31/01/2022,123.46,120.1074324
01/02/2022,125.11,121.0254638
02/02/2022,125.6,121.353243
03/02/2022,124.06,120.0737347
04/02/2022,123.07,119.0763939
07/02/2022,123.29,119.5594772
08/02/2022,123.42,119.5677238
09/02/2022,125.44,120.7991883
10/02/2022,125.2,120.6483646
11/02/2022,124.07,120.2369627
14/02/2022,122.38,118.9126877
15/02/2022,123.88,119.933836
16/02/2022,123.45,119.9659638
17/02/2022,122.89,119.4935858
18/02/2022,122.42,118.9166122
21/02/2022,120.85,117.9855947
22/02/2022,120.79,118.0339698
23/02/2022,120.85,117.8373434
24/02/2022,117.46,115.5582137
25/02/2022,120.63,117.8594216
28/02/2022,120.32,117.7918668
01/03/2022,118.06,116.1168673
02/03/2022,117.94,116.74376
03/03/2022,116.55,115.3416462
04/03/2022,112.46,112.8755991
07/03/2022,111.37,112.1280563
08/03/2022,110.88,111.820835
09/03/2022,116.27,114.9614077
10/03/2022,113.97,113.8595608
11/03/2022,115.14,114.5093839
14/03/2022,116.58,115.3331906
15/03/2022,116.32,115.1388942
16/03/2022,121.04,117.2661935
17/03/2022,122.01,117.6334396
18/03/2022,123.25,118.2783687
21/03/2022,123.47,118.308194
22/03/2022,124.74,118.9175292
23/03/2022,123.56,118.2044664
24/03/2022,123.09,118.0754043
25/03/2022,123.04,118.1728731
28/03/2022,123.63,118.277289
29/03/2022,126.46,119.516792
30/03/2022,126.07,119.2289713
31/03/2022,124.49,118.5713509
01/04/2022,124.85,118.9641308
04/04/2022,125.57,119.5616659
05/04/2022,124.65,119.7001021
06/04/2022,122.37,118.6074145